When you browse on this site, cookies collect data to enhance your experience and personalize the content and advertising you see.
Visit our Privacy Policy to learn more. By continuing to use the site, you agree to this use of cookies and data.
  • In Romania
  • List of Countries
  • For 7 days
  • Water Temperature
  • Weather Map
  • Weather Widgets
  • user-avatar
    Login

    Hourly Weather Kindia

    Today, 25 August, Sunday

    Time Temperature Precipitation Wind Pressure Humidity
    00:00 +22°C° 0 mm 1 mps 709 mmHg 93%
    01:00 +22°C° 0 mm 1 mps 709 mmHg 93%
    02:00 +22°C° 0 mm 1 mps 709 mmHg 93%
    03:00 +22°C° 0 mm 1 mps 708 mmHg 93%
    04:00 +22°C° 0 mm 1 mps 708 mmHg 92%
    05:00 +21°C° 0 mm 2 mps 709 mmHg 92%
    06:00 +21°C° 0 mm 2 mps 709 mmHg 92%
    07:00 +21°C° 0 mm 3 mps 709 mmHg 92%
    08:00 +22°C° 0.2 mm 3 mps 710 mmHg 88%
    09:00 +23°C° 0.2 mm 4 mps 710 mmHg 85%
    10:00 +25°C° 0.2 mm 4 mps 710 mmHg 82%
    11:00 +26°C° 0.3 mm 4 mps 710 mmHg 80%
    12:00 +27°C° 0.3 mm 4 mps 710 mmHg 77%
    13:00 +27°C° 0.3 mm 4 mps 709 mmHg 75%
    14:00 +27°C° 1 mm 4 mps 708 mmHg 76%
    15:00 +27°C° 1 mm 3 mps 708 mmHg 78%
    16:00 +27°C° 1 mm 3 mps 707 mmHg 80%
    17:00 +26°C° 1.2 mm 2 mps 707 mmHg 84%
    18:00 +24°C° 1.2 mm 2 mps 707 mmHg 87%
    19:00 +23°C° 1.2 mm 1 mps 708 mmHg 91%
    20:00 +23°C° 0.5 mm 1 mps 708 mmHg 92%
    21:00 +23°C° 0.5 mm 1 mps 708 mmHg 92%
    22:00 +23°C° 0.5 mm 1 mps 709 mmHg 93%
    23:00 +23°C° 0.1 mm 1 mps 709 mmHg 94%

    Tomorrow, 26 August, Monday

    Time Temperature Precipitation Wind Pressure Humidity
    00:00 +23°C° 0.1 mm 1 mps 708 mmHg 94%
    01:00 +22°C° 0.1 mm 1 mps 708 mmHg 95%
    02:00 +22°C° 0.7 mm 1 mps 708 mmHg 95%
    03:00 +22°C° 0.7 mm 1 mps 708 mmHg 96%
    04:00 +22°C° 0.7 mm 1 mps 708 mmHg 96%
    05:00 +22°C° 1 mm 1 mps 708 mmHg 96%
    06:00 +22°C° 1 mm 1 mps 708 mmHg 96%
    07:00 +22°C° 1 mm 1 mps 709 mmHg 96%
    08:00 +23°C° 0.9 mm 1 mps 709 mmHg 94%
    09:00 +24°C° 0.9 mm 2 mps 709 mmHg 92%
    10:00 +24°C° 0.9 mm 2 mps 710 mmHg 90%
    11:00 +25°C° 0.8 mm 2 mps 709 mmHg 85%
    12:00 +26°C° 0.8 mm 2 mps 709 mmHg 80%
    13:00 +27°C° 0.8 mm 3 mps 708 mmHg 75%
    14:00 +27°C° 0.8 mm 2 mps 708 mmHg 76%
    15:00 +27°C° 0.8 mm 2 mps 707 mmHg 77%
    16:00 +27°C° 0.8 mm 2 mps 706 mmHg 78%
    17:00 +26°C° 0.3 mm 2 mps 706 mmHg 83%
    18:00 +25°C° 0.3 mm 1 mps 707 mmHg 87%
    19:00 +24°C° 0.3 mm 1 mps 707 mmHg 91%
    20:00 +23°C° 0 mm 1 mps 707 mmHg 92%
    21:00 +23°C° 0 mm 1 mps 708 mmHg 93%
    22:00 +23°C° 0 mm 1 mps 708 mmHg 95%
    23:00 +23°C° 0 mm 2 mps 708 mmHg 94%

    Day after tomorrow, 27 August, Tuesday

    Time Temperature Precipitation Wind Pressure Humidity
    00:00 +21°C° 0 mm 2 mps 708 mmHg 94%
    01:00 +21°C° 0 mm 2 mps 708 mmHg 93%
    02:00 +21°C° 0 mm 2 mps 707 mmHg 93%
    03:00 +21°C° 0 mm 2 mps 707 mmHg 94%
    04:00 +21°C° 0 mm 3 mps 707 mmHg 94%
    05:00 +21°C° 0 mm 3 mps 708 mmHg 93%
    06:00 +21°C° 0 mm 3 mps 708 mmHg 92%
    07:00 +21°C° 0 mm 4 mps 708 mmHg 91%
    08:00 +23°C° 0.1 mm 4 mps 709 mmHg 87%
    09:00 +25°C° 0.1 mm 4 mps 709 mmHg 82%
    10:00 +26°C° 0.1 mm 4 mps 710 mmHg 78%
    11:00 +27°C° 0.7 mm 4 mps 709 mmHg 77%
    12:00 +27°C° 0.7 mm 4 mps 709 mmHg 76%
    13:00 +28°C° 0.7 mm 4 mps 708 mmHg 75%
    14:00 +27°C° 1.1 mm 3 mps 708 mmHg 77%
    15:00 +27°C° 1.1 mm 3 mps 707 mmHg 79%
    16:00 +27°C° 1.1 mm 2 mps 707 mmHg 81%
    17:00 +26°C° 0.6 mm 2 mps 707 mmHg 85%
    18:00 +25°C° 0.6 mm 2 mps 707 mmHg 89%
    19:00 +23°C° 0.6 mm 2 mps 707 mmHg 93%
    20:00 +23°C° 0.9 mm 2 mps 708 mmHg 94%
    21:00 +23°C° 0.9 mm 2 mps 708 mmHg 96%
    22:00 +23°C° 0.9 mm 2 mps 709 mmHg 97%
    23:00 +21°C° 0.2 mm 2 mps 708 mmHg 96%

    28 August, Wednesday

    Time Temperature Precipitation Wind Pressure Humidity
    00:00 +21°C° 0.2 mm 2 mps 708 mmHg 95%
    01:00 +21°C° 0.2 mm 2 mps 708 mmHg 95%
    02:00 +21°C° 0.1 mm 2 mps 708 mmHg 95%
    03:00 +22°C° 0.1 mm 1 mps 708 mmHg 96%
    04:00 +22°C° 0.1 mm 1 mps 708 mmHg 96%
    05:00 +22°C° 0.1 mm 1 mps 708 mmHg 96%
    06:00 +22°C° 0.1 mm 1 mps 709 mmHg 96%
    07:00 +22°C° 0.1 mm 1 mps 709 mmHg 97%
    08:00 +23°C° 0 mm 2 mps 709 mmHg 95%
    09:00 +23°C° 0 mm 2 mps 710 mmHg 93%
    10:00 +24°C° 0 mm 3 mps 710 mmHg 91%
    11:00 +24°C° 0 mm 3 mps 709 mmHg 87%
    12:00 +25°C° 0 mm 2 mps 709 mmHg 84%
    13:00 +26°C° 0 mm 2 mps 708 mmHg 80%
    14:00 +26°C° 0 mm 2 mps 708 mmHg 78%
    15:00 +27°C° 0 mm 1 mps 708 mmHg 75%
    16:00 +27°C° 0 mm 1 mps 707 mmHg 73%
    17:00 +26°C° 0 mm 1 mps 707 mmHg 79%
    18:00 +25°C° 0 mm 1 mps 707 mmHg 85%
    19:00 +23°C° 0 mm 1 mps 707 mmHg 91%
    20:00 +21°C° 0.1 mm 0 mps 708 mmHg 90%
    21:00 +21°C° 0.1 mm 0 mps 708 mmHg 89%
    22:00 +21°C° 0.1 mm 0 mps 708 mmHg 88%
    23:00 +21°C° 0 mm 0 mps 708 mmHg 88%

    29 August, Thursday

    Time Temperature Precipitation Wind Pressure Humidity
    00:00 +21°C° 0 mm 0 mps 708 mmHg 87%
    01:00 +21°C° 0 mm 0 mps 708 mmHg 87%
    02:00 +21°C° 0.1 mm 0 mps 708 mmHg 88%
    03:00 +21°C° 0.1 mm 0 mps 708 mmHg 89%
    04:00 +21°C° 0.1 mm 0 mps 708 mmHg 90%
    05:00 +21°C° 0.2 mm 0 mps 708 mmHg 91%
    06:00 +21°C° 0.2 mm 0 mps 708 mmHg 91%
    07:00 +21°C° 0.2 mm 0 mps 708 mmHg 92%
    08:00 +24°C° 0.3 mm 1 mps 709 mmHg 89%
    09:00 +25°C° 0.3 mm 1 mps 709 mmHg 85%
    10:00 +26°C° 0.3 mm 2 mps 709 mmHg 82%
    11:00 +27°C° 2.1 mm 2 mps 709 mmHg 80%
    12:00 +28°C° 2.1 mm 2 mps 708 mmHg 77%
    13:00 +28°C° 2.1 mm 2 mps 707 mmHg 75%
    14:00 +28°C° 2.3 mm 2 mps 707 mmHg 78%
    15:00 +28°C° 2.3 mm 1 mps 706 mmHg 80%
    16:00 +27°C° 2.3 mm 1 mps 706 mmHg 83%
    17:00 +26°C° 0.2 mm 1 mps 706 mmHg 85%
    18:00 +25°C° 0.2 mm 1 mps 706 mmHg 87%
    19:00 +24°C° 0.2 mm 1 mps 706 mmHg 89%
    20:00 +24°C° 0 mm 1 mps 706 mmHg 89%
    21:00 +23°C° 0 mm 1 mps 707 mmHg 89%
    22:00 +23°C° 0 mm 1 mps 707 mmHg 89%
    23:00 +23°C° 0.1 mm 1 mps 707 mmHg 91%

    30 August, Friday

    Time Temperature Precipitation Wind Pressure Humidity
    00:00 +22°C° 0.1 mm 1 mps 707 mmHg 92%
    01:00 +22°C° 0.1 mm 1 mps 707 mmHg 94%
    02:00 +22°C° 0.1 mm 1 mps 706 mmHg 95%
    03:00 +22°C° 0.1 mm 1 mps 706 mmHg 96%
    04:00 +21°C° 0.1 mm 1 mps 706 mmHg 97%
    05:00 +22°C° 0.3 mm 1 mps 707 mmHg 96%
    06:00 +21°C° 0.3 mm 2 mps 707 mmHg 95%
    07:00 +21°C° 0.3 mm 2 mps 708 mmHg 94%
    08:00 +24°C° 0 mm 2 mps 708 mmHg 88%
    09:00 +25°C° 0 mm 3 mps 708 mmHg 83%
    10:00 +27°C° 0 mm 3 mps 709 mmHg 77%
    11:00 +28°C° 0 mm 3 mps 708 mmHg 74%
    12:00 +29°C° 0 mm 3 mps 708 mmHg 70%
    13:00 +30°C° 0 mm 2 mps 707 mmHg 67%
    14:00 +29°C° 0.4 mm 2 mps 706 mmHg 71%
    15:00 +29°C° 0.4 mm 2 mps 706 mmHg 74%
    16:00 +28°C° 0.4 mm 2 mps 705 mmHg 78%
    17:00 +27°C° 0.8 mm 2 mps 705 mmHg 82%
    18:00 +26°C° 0.8 mm 1 mps 706 mmHg 86%
    19:00 +25°C° 0.8 mm 1 mps 706 mmHg 90%
    20:00 +24°C° 1.1 mm 2 mps 706 mmHg 91%
    21:00 +24°C° 1.1 mm 2 mps 706 mmHg 92%
    22:00 +24°C° 1.1 mm 3 mps 707 mmHg 92%
    23:00 +24°C° 0.2 mm 2 mps 706 mmHg 93%
    Show more